Home > Time Zones > World Clock > Weather > Egypt > Cairo > Past weeks

Flag for Egypt Weather past 2 weeks in Cairo, Egypt

Now
77 °F

Haze.


Feels Like: 79 °F
Forecast: 72 / 92 °F
Wind: No wind

Location: Cairo Airport

Current Time: Sep 17, 2014 at 7:41:40 AM

Latest Report: Sep 17, 2014 at 7:00 AM


Visibility: 2 mi

Pressure: 29.77 "Hg

Humidity: 65%

Dew point: 64 °F

Location of CairoLocation

Historic Weather in Cairo — Graph

°F

Cairo temperature yesterday

Maximum temperature yesterday: 102 °F (at 4:00 PM)
Minimum temperature yesterday: 75 °F (at 5:30 AM)
Average temperature yesterday: 89 °F

Past Weeks' High & Low Weather Summary

 TemperatureHumidityPressure
High104 °F (Sep 4, 2:00 PM)83% (Sep 5, 6:00 AM)29.98 "Hg (Sep 5, 6:00 AM)
Low73 °F (Sep 13, 6:30 AM)13% (Sep 4, 1:00 PM)29.74 "Hg (Sep 5, 6:00 PM)
Average84 °F52%29.88 "Hg
* Reported Sep 2 7:00 AM — Sep 17 7:00 AM, Cairo, Weather by CustomWeather, © 2014

Note: Actual official high and low records may vary slightly from our data, if they occured in-between our weather recording intervals... More about our weather records

Advertising

Cairo weather history for previous 24 hours

 ConditionsComfort  
Time TempWeatherWind HumidityBarometerVisibility
7:00 AM
Sep 17
77 °FHaze.No wind65%29.77 "Hg2 mi
6:30 AM79 °FClear.No wind58%29.74 "Hg4 mi
6:00 AM79 °FClear.No wind58%29.74 "Hg4 mi
5:30 AM81 °FClear.No wind51%29.74 "Hg4 mi
5:00 AM81 °FClear.No wind51%29.74 "Hg4 mi
4:30 AM81 °FClear.No wind48%29.74 "Hg4 mi
4:00 AM82 °FClear.No wind45%29.74 "Hg4 mi
3:30 AM86 °FClear.7 mph29%29.74 "Hg10 mi
3:00 AM84 °FClear.2 mph37%29.74 "Hg10 mi
2:30 AM84 °FClear.No wind33%29.74 "Hg10 mi
2:00 AM86 °FClear.1 mph31%29.74 "Hg10 mi
1:30 AM86 °FClear.No wind25%29.74 "Hg10 mi
1:00 AM86 °FClear.No wind33%29.74 "Hg10 mi
12:30 AM86 °FClear.No wind33%29.74 "Hg10 mi
12:00 AM88 °FClear.8 mph31%29.77 "Hg10 mi
11:30 PM
Sep 16
88 °FClear.10 mph31%29.77 "Hg10 mi
11:00 PM88 °FClear.13 mph27%29.77 "Hg10 mi
10:30 PM90 °FClear.9 mph33%29.77 "Hg10 mi
10:00 PM90 °FClear.9 mph33%29.77 "Hg10 mi
9:30 PM90 °FClear.13 mph33%29.77 "Hg10 mi
9:00 PM91 °FClear.15 mph32%29.77 "Hg10 mi
8:30 PM91 °FClear.15 mph32%29.77 "Hg10 mi
8:00 PM93 °FClear.14 mph24%29.77 "Hg10 mi
7:30 PM95 °FClear.13 mph22%29.77 "Hg10 mi
7:00 PM97 °FClear.10 mph20%29.77 "Hg10 mi
6:30 PM99 °FSunny.3 mph18%29.80 "Hg10 mi
6:00 PM100 °FSunny.8 mph17%29.77 "Hg10 mi
5:30 PM100 °FSunny.2 mph17%29.80 "Hg10 mi
5:00 PM100 °FSunny.2 mph17%29.80 "Hg10 mi
4:30 PM100 °FSunny.No wind17%29.80 "Hg10 mi
4:00 PM102 °FSunny.No wind15%29.80 "Hg10 mi
3:30 PM100 °FSunny.2 mph15%29.80 "Hg10 mi
3:00 PM100 °FSunny.3 mph14%29.80 "Hg10 mi
2:30 PM100 °FSunny.2 mph15%29.83 "Hg10 mi
2:00 PM100 °FSunny.No wind15%29.83 "Hg10 mi
1:30 PM100 °FSunny.2 mph15%29.86 "Hg10 mi
1:00 PM100 °FSunny.No wind15%29.86 "Hg10 mi
12:30 PM99 °FSunny.No wind16%29.86 "Hg10 mi
12:00 PM97 °FSunny.No wind18%29.89 "Hg10 mi
11:30 AM97 °FSunny.No wind20%29.86 "Hg10 mi
11:00 AM93 °FSunny.No wind24%29.86 "Hg10 mi
10:30 AM91 °FSunny.No wind38%29.86 "Hg10 mi
10:00 AM88 °FSunny.No wind43%29.89 "Hg10 mi
9:30 AM86 °FSunny.No wind46%29.89 "Hg10 mi
9:00 AM84 °FSunny.No wind55%29.86 "Hg10 mi
8:32 AM82 °FSunny.No wind58%29.86 "Hg10 mi
8:00 AM77 °FSunny.No wind65%29.86 "Hg10 mi
7:30 AM77 °FSunny.No wind65%29.86 "Hg10 mi
7:00 AM75 °FSunny.No wind69%29.86 "Hg10 mi
Weather by CustomWeather, © 2014

See weather overviewHow to use our weather pages